Tracking 28790 objects as of 19-Apr-2024
HD Live streaming from Space Station
objects crossing your sky now

CENTISPACE-1 S6

Track CENTISPACE-1 S6 now!
10-day predictions


NORAD ID: 54021
Int'l Code: 2022-126B
Perigee: 690.1 km
Apogee: 714.3 km
Inclination: 55.0 °
Period: 98.7 minutes
Semi major axis: 7073 km
RCS: Unknown
Launch date: October 7, 2022
Source: People's Republic of China (PRC)
Launch site: Yellow Sea Launch Area, China (YSLA)
Your satellite tracking list
Your tracking list is empty




NASA's NSSDC Master Catalog

Two Line Element Set (TLE):
1 54021U 22126B   24110.45337669  .00001351  00000-0  32137-3 0  9995
2 54021  54.9975 121.7866 0017115  99.4701 260.8227 14.59403040 81702
Source of the keplerian elements: AFSPC